User: anonymous   Login
Location: Fort Wayne
(41.1310°N, 85.1290°W)
Time: 02:03:31
(UTC-04:00)
Language:

Cosmos 1000 Rocket - Orbit

View from above orbital plane
View from above orbital plane
View from above satellite
View from above satellite

Ground track
Ground track

The orbit data is extracted from the following two-line orbital elements,

1 10777U 78034B   16243.16897833 -.00000049  00000-0 -63879-4 0  9997
2 10777  82.9394  87.0371 0024961 294.6199 204.8660 13.77379984930328
Epoch (UTC): 30 August 2016 04:03:19
Eccentricity: 0.0024961
inclination: 82.9394°
perigee height: 955 km
apogee height: 991 km
right ascension of ascending node: 87.0371°
argument of perigee: 294.6199°
revolutions per day: 13.77379984
mean anomaly at epoch: 204.8660°
orbit number at epoch: 93032

The dashed part of the orbit path shows where the satellite is in the earth's shadow,  

DLR